Location: Dodgeville, WI 53533, USA
(43.0344°N, 90.0900°W)
Time: 09:45:58
(UTC-05:00)

CAS-6 - Visible Passes

Search period start: 20 April 2021 00:00
Search period end: 30 April 2021 00:00
Orbit: 613 x 636 km, 97.9° (Epoch: 20 April)

Date Brightness Start Highest point End Pass type
(mag) Time Alt. Az. Time Alt. Az. Time Alt. Az.
20 Apr ? 22:11:27 19° NE 22:11:27 19° NE 22:13:54 10° NNE visible
20 Apr ? 23:48:42 25° NW 23:48:42 25° NW 23:50:48 10° NNW visible
21 Apr ? 22:30:18 27° NE 22:30:18 27° NE 22:33:05 10° N visible
22 Apr ? 00:07:33 18° NW 00:07:33 18° NW 00:09:09 10° NW visible
22 Apr ? 22:49:08 36° NNE 22:49:08 36° NNE 22:52:06 10° N visible
23 Apr ? 00:26:24 13° WNW 00:26:24 13° WNW 00:27:11 10° NW visible
23 Apr ? 23:07:59 42° N 23:07:59 42° N 23:10:56 10° N visible
24 Apr ? 21:49:34 12° ENE 21:49:42 12° ENE 21:51:28 10° NE visible
24 Apr ? 23:26:50 39° NNW 23:26:50 39° NNW 23:29:39 10° NNW visible
25 Apr ? 22:08:25 18° ENE 22:08:25 18° ENE 22:11:11 10° NNE visible
25 Apr ? 23:45:41 30° NW 23:45:41 30° NW 23:48:13 10° NNW visible
26 Apr ? 22:27:16 27° NE 22:27:16 27° NE 22:30:25 10° N visible
27 Apr ? 00:04:31 22° WNW 00:04:31 22° WNW 00:06:36 10° NW visible
27 Apr ? 22:46:07 38° NE 22:46:07 38° NE 22:49:27 10° N visible
28 Apr ? 00:23:22 15° WNW 00:23:22 15° WNW 00:24:42 10° NW visible
28 Apr ? 23:04:58 51° NNE 23:04:58 51° NNE 23:08:19 10° N visible
29 Apr ? 21:46:33 11° ENE 21:47:08 12° ENE 21:48:35 10° NE visible
29 Apr ? 23:23:49 49° NNW 23:23:49 49° NNW 23:27:03 10° NNW visible
